DLH550 EDDH-LIRF

Flight info

Callsign DLH550
Flight time 1h 49m
Altitude 37000
Route AMLUH2G/33 AMLUH M852 DENIX DCT ZUCKA DCT MOOCE DCT BERAS M736 LIZUM N503 LIKDA DCT BAKOR DCT VESAL DCT VIC DCT KOPER DCT SUKOM DCT GAVRA DCT RITEB DCT GIKIN DCT VP237 DCT EXAMA DCT IRBES DCT RF809 DCT LIRF/16L
Aircraft A321/M-V/N

Departure

Time 2026-05-04 16:47
Airport Hamburg Helmut Schmidt Airport (EDDH)

Arrival

Time 2026-05-04 18:36
Airport Rome–Fiumicino Leonardo da Vinci International Airport (LIRF)
Time Latitude Longitude Altitude Speed Heading
2026-05-04 15:53 53.63206 10.00361 49 ft 0 kts 86°
2026-05-04 16:36 53.63206 10.00356 49 ft 3 kts 86°
2026-05-04 16:37 53.63204 10.00299 49 ft 3 kts 88°
2026-05-04 16:37 53.63204 10.00266 49 ft 3 kts 98°
2026-05-04 16:37 53.63218 10.00233 47 ft 0 kts 150°
2026-05-04 16:38 53.63203 10.00246 49 ft 0 kts 161°
2026-05-04 16:41 53.63174 10.00253 49 ft 6 kts 175°
2026-05-04 16:42 53.62998 10.00187 49 ft 10 kts 213°
2026-05-04 16:43 53.62897 10.00079 49 ft 5 kts 212°
2026-05-04 16:43 53.62886 10.00067 49 ft 0 kts 212°
2026-05-04 16:44 53.62828 9.99905 47 ft 7 kts 244°
2026-05-04 16:45 53.62846 9.99762 45 ft 0 kts 333°
2026-05-04 16:46 53.62857 9.99753 45 ft 0 kts 333°
2026-05-04 16:46 53.63050 9.99587 46 ft 73 kts 333°
2026-05-04 16:47 53.64926 9.97966 323 ft 214 kts 332°
2026-05-04 16:47 53.68279 9.95333 1666 ft 313 kts 346°
2026-05-04 16:48 53.73295 9.98141 2738 ft 241 kts 65°
2026-05-04 16:48 53.73816 10.00832 2814 ft 248 kts 81°
2026-05-04 16:49 53.73112 10.06695 4092 ft 264 kts 115°
2026-05-04 16:49 53.71381 10.12313 4803 ft 273 kts 120°
2026-05-04 16:50 53.69286 10.17520 6158 ft 271 kts 143°
2026-05-04 16:50 53.65985 10.20630 8609 ft 278 kts 156°
2026-05-04 16:51 53.62279 10.23020 10781 ft 298 kts 162°
2026-05-04 16:51 53.60235 10.24128 11516 ft 319 kts 163°
2026-05-04 16:51 53.55723 10.26343 13137 ft 355 kts 165°
2026-05-04 16:52 53.50752 10.28637 14844 ft 385 kts 165°
2026-05-04 16:52 53.48126 10.29832 15739 ft 396 kts 165°
2026-05-04 16:53 53.42722 10.32272 17823 ft 408 kts 165°
2026-05-04 16:53 53.34332 10.36032 20643 ft 427 kts 165°
2026-05-04 16:54 53.31442 10.37327 21524 ft 432 kts 165°
2026-05-04 16:55 53.19511 10.42682 24739 ft 455 kts 165°
2026-05-04 16:55 53.13305 10.45269 26198 ft 465 kts 168°
2026-05-04 16:56 53.06899 10.47435 27611 ft 473 kts 169°
2026-05-04 16:56 52.97288 10.50462 30557 ft 460 kts 169°
2026-05-04 16:57 52.94146 10.51437 31327 ft 459 kts 169°
2026-05-04 16:57 52.87922 10.53362 32770 ft 457 kts 169°
2026-05-04 16:58 52.78573 10.56243 34703 ft 454 kts 169°
2026-05-04 16:58 52.75486 10.57193 35289 ft 453 kts 169°
2026-05-04 16:59 52.69284 10.59098 36378 ft 451 kts 169°
2026-05-04 17:00 52.57088 10.62829 36982 ft 453 kts 169°
2026-05-04 17:01 52.41672 10.67517 36999 ft 449 kts 170°
2026-05-04 17:02 52.29387 10.71229 36998 ft 450 kts 170°
2026-05-04 17:03 52.20160 10.74003 37000 ft 451 kts 170°
2026-05-04 17:03 52.10891 10.76781 36999 ft 450 kts 170°
2026-05-04 17:04 51.98585 10.80443 37001 ft 451 kts 170°
2026-05-04 17:05 51.86289 10.84085 36999 ft 450 kts 170°
2026-05-04 17:06 51.77035 10.86814 37001 ft 453 kts 170°
2026-05-04 17:07 51.68729 10.89281 37000 ft 452 kts 169°
2026-05-04 17:07 51.61560 10.91535 37000 ft 452 kts 169°
2026-05-04 17:08 51.52288 10.94497 37000 ft 452 kts 169°
2026-05-04 17:09 51.46135 10.96465 37000 ft 449 kts 169°
2026-05-04 17:09 51.40001 10.98423 37001 ft 450 kts 169°
2026-05-04 17:10 51.24609 11.03317 37000 ft 450 kts 169°
2026-05-04 17:11 51.18464 11.05262 37000 ft 450 kts 169°
2026-05-04 17:12 51.09243 11.08171 37000 ft 451 kts 169°
2026-05-04 17:13 50.93908 11.12983 37001 ft 450 kts 169°
2026-05-04 17:14 50.81552 11.16836 37000 ft 453 kts 169°
2026-05-04 17:15 50.72307 11.19706 37001 ft 451 kts 169°
2026-05-04 17:16 50.59957 11.23522 37000 ft 453 kts 169°
2026-05-04 17:17 50.47603 11.27318 37000 ft 454 kts 169°
2026-05-04 17:18 50.35218 11.31103 37000 ft 453 kts 169°
2026-05-04 17:19 50.22879 11.34854 37001 ft 452 kts 169°
2026-05-04 17:20 50.10526 11.38590 37001 ft 452 kts 169°
2026-05-04 17:20 50.01280 11.41373 37000 ft 451 kts 169°
2026-05-04 17:21 49.88914 11.45078 37000 ft 453 kts 169°
2026-05-04 17:22 49.82728 11.46925 37000 ft 451 kts 169°
2026-05-04 17:23 49.70405 11.50589 36999 ft 453 kts 169°
2026-05-04 17:24 49.61142 11.53330 37000 ft 451 kts 169°
2026-05-04 17:25 49.48624 11.55388 37000 ft 453 kts 176°
2026-05-04 17:26 49.36067 11.56781 37000 ft 453 kts 176°
2026-05-04 17:27 49.20395 11.58438 37000 ft 452 kts 176°
2026-05-04 17:28 49.08836 11.59645 37000 ft 453 kts 176°
2026-05-04 17:29 48.90052 11.61588 37000 ft 453 kts 176°
2026-05-04 17:31 48.74380 11.63195 37000 ft 451 kts 176°
2026-05-04 17:32 48.58687 11.64794 37000 ft 451 kts 176°
2026-05-04 17:33 48.46129 11.66066 37000 ft 453 kts 176°
2026-05-04 17:34 48.33623 11.67326 37000 ft 452 kts 176°
2026-05-04 17:35 48.17917 11.68899 37000 ft 452 kts 176°
2026-05-04 17:36 48.11640 11.69526 37001 ft 452 kts 176°
2026-05-04 17:36 48.05352 11.70151 37000 ft 453 kts 176°
2026-05-04 17:37 47.99060 11.70775 36999 ft 453 kts 176°
2026-05-04 17:37 47.92771 11.71398 37000 ft 452 kts 176°
2026-05-04 17:38 47.86503 11.72018 37001 ft 454 kts 176°
2026-05-04 17:38 47.80205 11.72639 37000 ft 454 kts 176°
2026-05-04 17:39 47.70752 11.73568 37000 ft 453 kts 176°
2026-05-04 17:39 47.64443 11.74185 37000 ft 455 kts 176°
2026-05-04 17:40 47.58115 11.74803 37001 ft 456 kts 176°
2026-05-04 17:40 47.51763 11.75422 36999 ft 457 kts 176°
2026-05-04 17:41 47.45402 11.76041 37000 ft 459 kts 176°
2026-05-04 17:41 47.39007 11.76633 37001 ft 457 kts 178°
2026-05-04 17:42 47.32704 11.76683 37001 ft 453 kts 181°
2026-05-04 17:42 47.26307 11.76436 37001 ft 464 kts 182°
2026-05-04 17:43 47.19847 11.76091 36999 ft 464 kts 182°
2026-05-04 17:43 47.13406 11.75719 36999 ft 460 kts 182°
2026-05-04 17:44 47.06991 11.75364 37000 ft 463 kts 182°
2026-05-04 17:44 47.00593 11.75019 37002 ft 461 kts 182°
2026-05-04 17:45 46.94161 11.74670 37001 ft 469 kts 182°
2026-05-04 17:45 46.87658 11.74317 37000 ft 464 kts 182°
2026-05-04 17:46 46.81269 11.73970 37001 ft 454 kts 182°
2026-05-04 17:46 46.74954 11.73626 37002 ft 457 kts 182°
2026-05-04 17:47 46.68585 11.73279 37001 ft 464 kts 182°
2026-05-04 17:47 46.62117 11.72927 36999 ft 461 kts 182°
2026-05-04 17:48 46.55712 11.72573 37000 ft 462 kts 182°
2026-05-04 17:48 46.49290 11.72215 37003 ft 463 kts 182°
2026-05-04 17:49 46.42860 11.71857 37001 ft 460 kts 182°
2026-05-04 17:49 46.36457 11.71505 37002 ft 463 kts 182°
2026-05-04 17:50 46.30013 11.71157 37001 ft 462 kts 182°
2026-05-04 17:50 46.23609 11.70813 37001 ft 462 kts 182°
2026-05-04 17:51 46.17250 11.70474 37002 ft 458 kts 182°
2026-05-04 17:51 46.10909 11.70136 36999 ft 455 kts 182°
2026-05-04 17:52 46.04534 11.69797 37000 ft 458 kts 182°
2026-05-04 17:52 45.98208 11.69460 36999 ft 455 kts 182°
2026-05-04 17:53 45.91930 11.69127 36999 ft 454 kts 182°
2026-05-04 17:53 45.85627 11.68793 37000 ft 452 kts 182°
2026-05-04 17:54 45.79337 11.68460 37000 ft 453 kts 182°
2026-05-04 17:54 45.73054 11.68129 36998 ft 449 kts 182°
2026-05-04 17:55 45.66828 11.67797 37000 ft 447 kts 182°
2026-05-04 17:55 45.60590 11.67397 37000 ft 450 kts 183°
2026-05-04 17:56 45.54338 11.66957 36999 ft 449 kts 183°
2026-05-04 17:56 45.48107 11.66507 37000 ft 448 kts 183°
2026-05-04 17:57 45.41918 11.66058 37000 ft 449 kts 183°
2026-05-04 17:57 45.35666 11.65604 36999 ft 449 kts 183°
2026-05-04 17:58 45.29407 11.65152 37000 ft 450 kts 183°
2026-05-04 17:58 45.23176 11.64702 37001 ft 448 kts 183°
2026-05-04 17:59 45.16941 11.64349 37001 ft 448 kts 180°
2026-05-04 18:00 45.07569 11.64552 36999 ft 449 kts 179°
2026-05-04 18:00 45.01315 11.64818 36999 ft 448 kts 178°
2026-05-04 18:01 44.95083 11.65105 37001 ft 448 kts 178°
2026-05-04 18:01 44.88835 11.65400 37000 ft 450 kts 178°
2026-05-04 18:02 44.79468 11.65841 36999 ft 448 kts 178°
2026-05-04 18:02 44.73239 11.66134 37001 ft 449 kts 178°
2026-05-04 18:03 44.67029 11.66425 37000 ft 450 kts 178°
2026-05-04 18:03 44.60782 11.66716 36999 ft 449 kts 178°
2026-05-04 18:04 44.54562 11.67356 37001 ft 448 kts 174°
2026-05-04 18:05 44.45260 11.69043 37000 ft 450 kts 172°
2026-05-04 18:05 44.39063 11.70261 36999 ft 449 kts 172°
2026-05-04 18:06 44.29786 11.72112 37001 ft 450 kts 172°
2026-05-04 18:06 44.23578 11.73353 37001 ft 451 kts 172°
2026-05-04 18:07 44.17366 11.74593 37002 ft 450 kts 172°
2026-05-04 18:07 44.11148 11.75832 37005 ft 452 kts 172°
2026-05-04 18:08 44.04955 11.77065 37005 ft 452 kts 172°
2026-05-04 18:08 43.98714 11.78304 36707 ft 453 kts 172°
2026-05-04 18:09 43.92466 11.79542 35013 ft 456 kts 172°
2026-05-04 18:09 43.86171 11.80785 33229 ft 457 kts 172°
2026-05-04 18:10 43.83045 11.81403 32563 ft 451 kts 172°
2026-05-04 18:10 43.79957 11.82070 31806 ft 448 kts 170°
2026-05-04 18:10 43.76922 11.82887 31211 ft 440 kts 168°
2026-05-04 18:10 43.73946 11.83760 30569 ft 435 kts 168°
2026-05-04 18:11 43.71011 11.84655 29912 ft 429 kts 167°
2026-05-04 18:11 43.68109 11.85557 29253 ft 424 kts 167°
2026-05-04 18:11 43.65242 11.86457 28549 ft 421 kts 167°
2026-05-04 18:11 43.62405 11.87352 27919 ft 416 kts 167°
2026-05-04 18:12 43.59602 11.88239 27268 ft 411 kts 167°
2026-05-04 18:12 43.56831 11.89117 26614 ft 407 kts 167°
2026-05-04 18:12 43.54084 11.89988 25956 ft 403 kts 167°
2026-05-04 18:12 43.51372 11.90848 25331 ft 398 kts 167°
2026-05-04 18:13 43.48681 11.91700 24690 ft 394 kts 167°
2026-05-04 18:13 43.46026 11.92541 24052 ft 390 kts 167°
2026-05-04 18:13 43.40781 11.94200 22757 ft 383 kts 167°
2026-05-04 18:14 43.39068 11.94741 22339 ft 381 kts 167°
2026-05-04 18:14 43.36494 11.95554 21713 ft 377 kts 167°
2026-05-04 18:14 43.33956 11.96355 21122 ft 372 kts 167°
2026-05-04 18:15 43.28947 11.97934 19863 ft 366 kts 167°
2026-05-04 18:15 43.24030 11.99481 18673 ft 358 kts 167°
2026-05-04 18:15 43.21613 12.00240 18070 ft 355 kts 167°
2026-05-04 18:16 43.19215 12.00993 17468 ft 352 kts 167°
2026-05-04 18:16 43.16849 12.01736 16864 ft 348 kts 167°
2026-05-04 18:16 43.14491 12.02475 16274 ft 345 kts 167°
2026-05-04 18:17 43.09849 12.03929 15092 ft 339 kts 167°
2026-05-04 18:17 43.07556 12.04647 14499 ft 336 kts 167°
2026-05-04 18:17 43.03037 12.06058 13342 ft 330 kts 167°
2026-05-04 18:18 43.00807 12.06755 12750 ft 328 kts 167°
2026-05-04 18:18 42.98587 12.07447 12174 ft 325 kts 167°
2026-05-04 18:18 42.96392 12.08131 11618 ft 322 kts 167°
2026-05-04 18:18 42.94223 12.08807 11178 ft 315 kts 167°
2026-05-04 18:19 42.90117 12.10085 10719 ft 290 kts 167°
2026-05-04 18:19 42.88181 12.10688 10392 ft 283 kts 167°
2026-05-04 18:19 42.86270 12.11281 9935 ft 281 kts 167°
2026-05-04 18:20 42.84367 12.11872 9484 ft 279 kts 167°
2026-05-04 18:20 42.82503 12.12450 9057 ft 277 kts 167°
2026-05-04 18:20 42.80631 12.13030 8604 ft 275 kts 167°
2026-05-04 18:20 42.78750 12.13611 8149 ft 273 kts 167°
2026-05-04 18:21 42.76899 12.14185 7711 ft 272 kts 167°
2026-05-04 18:21 42.75063 12.14754 7278 ft 270 kts 167°
2026-05-04 18:21 42.73240 12.15317 6842 ft 268 kts 168°
2026-05-04 18:21 42.71428 12.15455 6393 ft 265 kts 193°
2026-05-04 18:22 42.69713 12.14517 5919 ft 263 kts 210°
2026-05-04 18:22 42.68186 12.13165 5482 ft 261 kts 217°
2026-05-04 18:22 42.66734 12.11585 5212 ft 266 kts 221°
2026-05-04 18:22 42.65392 12.09921 5093 ft 258 kts 224°
2026-05-04 18:23 42.64132 12.08219 5043 ft 260 kts 226°
2026-05-04 18:23 42.62695 12.06720 5034 ft 259 kts 202°
2026-05-04 18:23 42.60947 12.06291 5034 ft 262 kts 181°
2026-05-04 18:23 42.59132 12.06400 5005 ft 261 kts 175°
2026-05-04 18:24 42.57324 12.06681 4935 ft 261 kts 172°
2026-05-04 18:24 42.55540 12.07056 4901 ft 260 kts 171°
2026-05-04 18:24 42.53756 12.07497 4894 ft 261 kts 169°
2026-05-04 18:24 42.51981 12.07978 4887 ft 260 kts 168°
2026-05-04 18:25 42.50215 12.08483 5053 ft 261 kts 168°
2026-05-04 18:25 42.48452 12.09004 5521 ft 258 kts 168°
2026-05-04 18:25 42.46666 12.09543 5723 ft 264 kts 168°
2026-05-04 18:25 42.44880 12.10088 5815 ft 264 kts 167°
2026-05-04 18:26 42.43084 12.10639 5850 ft 265 kts 167°
2026-05-04 18:26 42.41292 12.11190 5863 ft 263 kts 167°
2026-05-04 18:26 42.39504 12.11740 5871 ft 264 kts 167°
2026-05-04 18:26 42.37710 12.12291 5884 ft 265 kts 167°
2026-05-04 18:27 42.35940 12.12835 5887 ft 264 kts 167°
2026-05-04 18:27 42.34143 12.13386 5876 ft 265 kts 167°
2026-05-04 18:27 42.32342 12.13938 5874 ft 265 kts 167°
2026-05-04 18:27 42.30543 12.14489 5884 ft 265 kts 167°
2026-05-04 18:28 42.28748 12.15037 5881 ft 264 kts 167°
2026-05-04 18:28 42.26957 12.15584 5880 ft 264 kts 167°
2026-05-04 18:28 42.25159 12.16133 5881 ft 264 kts 167°
2026-05-04 18:28 42.23373 12.16677 5885 ft 263 kts 167°
2026-05-04 18:29 42.21581 12.17224 5884 ft 265 kts 167°
2026-05-04 18:29 42.19785 12.17771 5886 ft 264 kts 168°
2026-05-04 18:29 42.17994 12.18310 5817 ft 265 kts 169°
2026-05-04 18:29 42.16195 12.18582 5689 ft 256 kts 178°
2026-05-04 18:30 42.12670 12.18420 4870 ft 252 kts 188°
2026-05-04 18:30 42.10935 12.18158 4447 ft 250 kts 179°
2026-05-04 18:30 42.09208 12.18325 4133 ft 245 kts 174°
2026-05-04 18:31 42.07571 12.18592 4001 ft 229 kts 173°
2026-05-04 18:31 42.06051 12.18877 3939 ft 210 kts 172°
2026-05-04 18:31 42.04691 12.19153 3903 ft 186 kts 172°
2026-05-04 18:31 42.03478 12.19410 3865 ft 171 kts 172°
2026-05-04 18:32 42.02283 12.19609 3612 ft 172 kts 174°
2026-05-04 18:32 42.01131 12.19814 3377 ft 168 kts 172°
2026-05-04 18:32 41.99973 12.20064 3149 ft 168 kts 171°
2026-05-04 18:32 41.98823 12.20343 2921 ft 168 kts 170°
2026-05-04 18:33 41.97689 12.20687 2697 ft 166 kts 166°
2026-05-04 18:33 41.96577 12.21111 2480 ft 166 kts 163°
2026-05-04 18:33 41.95471 12.21572 2261 ft 166 kts 163°
2026-05-04 18:33 41.94370 12.22044 2042 ft 165 kts 163°
2026-05-04 18:34 41.93281 12.22522 1820 ft 165 kts 161°
2026-05-04 18:34 41.92195 12.22997 1610 ft 165 kts 163°
2026-05-04 18:34 41.91100 12.23441 1415 ft 163 kts 163°
2026-05-04 18:34 41.90019 12.23898 1227 ft 162 kts 163°
2026-05-04 18:35 41.88928 12.24342 984 ft 165 kts 163°
2026-05-04 18:35 41.87838 12.24790 747 ft 164 kts 163°
2026-05-04 18:35 41.86754 12.25252 508 ft 161 kts 163°
2026-05-04 18:35 41.85701 12.25691 297 ft 157 kts 163°
2026-05-04 18:36 41.84658 12.26128 96 ft 158 kts 163°
2026-05-04 18:36 41.83652 12.26549 17 ft 128 kts 163°
2026-05-04 18:36 41.83090 12.26781 15 ft 44 kts 162°
2026-05-04 18:36 41.82823 12.26873 16 ft 34 kts 176°
2026-05-04 18:37 41.82609 12.26841 15 ft 28 kts 192°
2026-05-04 18:37 41.82442 12.26792 15 ft 22 kts 192°
2026-05-04 18:37 41.82308 12.26787 15 ft 16 kts 170°
2026-05-04 18:37 41.82213 12.26827 15 ft 14 kts 162°
2026-05-04 18:38 41.82126 12.26863 15 ft 13 kts 162°
2026-05-04 18:38 41.82042 12.26898 15 ft 12 kts 163°
2026-05-04 18:38 41.81963 12.26931 15 ft 12 kts 163°
2026-05-04 18:38 41.81888 12.26956 16 ft 11 kts 174°
2026-05-04 18:39 41.81818 12.26939 15 ft 10 kts 193°
2026-05-04 18:39 41.81753 12.26918 15 ft 9 kts 193°
2026-05-04 18:39 41.81692 12.26910 15 ft 9 kts 173°
2026-05-04 18:39 41.81634 12.26931 15 ft 9 kts 163°
2026-05-04 18:40 41.81563 12.26961 15 ft 13 kts 162°
2026-05-04 18:40 41.81468 12.27002 15 ft 16 kts 162°
2026-05-04 18:40 41.81353 12.27051 15 ft 19 kts 162°
2026-05-04 18:40 41.81222 12.27105 15 ft 21 kts 163°
2026-05-04 18:41 41.81089 12.27158 15 ft 19 kts 163°
2026-05-04 18:41 41.80965 12.27211 15 ft 18 kts 161°
2026-05-04 18:41 41.80847 12.27212 18 ft 17 kts 193°
2026-05-04 18:41 41.80771 12.27115 15 ft 15 kts 249°
2026-05-04 18:42 41.80697 12.27051 15 ft 13 kts 185°
2026-05-04 18:42 41.80613 12.27025 15 ft 12 kts 212°
2026-05-04 18:42 41.80576 12.26932 15 ft 11 kts 249°
2026-05-04 18:42 41.80550 12.26839 15 ft 11 kts 249°
2026-05-04 18:43 41.80520 12.26731 15 ft 14 kts 249°
2026-05-04 18:43 41.80485 12.26602 15 ft 16 kts 250°
2026-05-04 18:43 41.80444 12.26453 17 ft 18 kts 250°
2026-05-04 18:43 41.80399 12.26289 15 ft 20 kts 250°
2026-05-04 18:44 41.80339 12.26118 15 ft 21 kts 224°
2026-05-04 18:44 41.80253 12.26058 15 ft 22 kts 204°
2026-05-04 18:44 41.80064 12.25940 15 ft 24 kts 205°
2026-05-04 18:44 41.79933 12.25845 15 ft 17 kts 239°
2026-05-04 18:45 41.79960 12.25723 15 ft 12 kts 296°
2026-05-04 18:45 41.79992 12.25633 15 ft 9 kts 294°
2026-05-04 18:45 41.80016 12.25563 17 ft 8 kts 296°
2026-05-04 18:45 41.79989 12.25511 15 ft 8 kts 204°
2026-05-04 18:46 41.79935 12.25480 15 ft 9 kts 202°
2026-05-04 18:46 41.79873 12.25442 17 ft 10 kts 206°
2026-05-04 18:46 41.79808 12.25395 15 ft 9 kts 223°
2026-05-04 18:46 41.79812 12.25337 18 ft 4 kts 293°
2026-05-04 18:47 41.79816 12.25327 17 ft 0 kts 295°